Location: Alphen aan den Rijn
(52.1277°N, 4.6689°E)
Time: 16:12:04

Envisat - Pass Details

Date: 28 February 2018
Orbit: 764 x 766 km, 98.2° (Epoch: 23 March)

Event Time Altitude Azimuth Distance (km) Brightness Sun altitude
Rises 20:34:23 0° 184° (S) 3,222 6.1 -21.4°
Reaches altitude 10° 20:36:48 10° 191° (S) 2,300 5.4 -21.8°
Maximum altitude 20:41:37 43° 262° (W) 1,070 4.1 -22.5°
Drops below altitude 10° 20:46:28 10° 334° (NNW) 2,316 6.0 -23.2°
Sets 20:48:54 0° 341° (NNW) 3,247 6.8 -23.5°
